Address 0x17920846efd9be87822f3e23360d763ec7f538c1

Txn Hash Method
Block
From
To
Value [Txn Fee]
0x12b927715729ce2dbe8516374fdf7447620185a45d1c676e5578bc7c036bdbc2Transfer59495602022-12-10 7:39:381 hr 29 mins ago0x356017af139eb6c4e18af9bc1d7bc8f1eb9f35ee IN 0x17920846efd9be87822f3e23360d763ec7f538c118,111.553869107852859 CRO0.1020460621470
0x14a1ed055678134db0ed9ee3828fb044884224a2170fcaa3d4de1ccfeeace381Transfer59484782022-12-10 5:57:433 hrs 11 mins ago0xc5301bffe4f70ad04b2c2063151414ad027d1b3c IN 0x17920846efd9be87822f3e23360d763ec7f538c1182.200827494091601 CRO0.1020471259080
0x8022a667631e50f6ab95193dce24d13cb74ca0a2bf24f0c92456335181d5bf0bTransfer59484062022-12-10 5:50:563 hrs 18 mins ago0x17920846efd9be87822f3e23360d763ec7f538c1OUT Mad Meerkat Finance: MMF Token0 CRO0.1960812570720
0x088cb060ca24545d1a6dfea4b6929dbdb3b49a9968df1b083acef2be5164ccebTransfer59475872022-12-10 4:33:424 hrs 35 mins ago0x340383545f693e1d9c36138ea564dfd042fd046f IN 0x17920846efd9be87822f3e23360d763ec7f538c1103.336809980729521 CRO0.102048000820
0x36d4c2c1240e062bfa45b4317be047e52cb56d3efa504c12582711994ec7cd7dTransfer59470132022-12-10 3:39:395 hrs 29 mins ago0xa7d041bfd11c780b122632ed249f60e87374fade IN 0x17920846efd9be87822f3e23360d763ec7f538c1101.55931746493754 CRO0.1020485671290
0x1886c66c5cfa855564a07cddaf912e507c554485fef12669fccffc77472fdaacTransfer59466632022-12-10 3:06:376 hrs 2 mins ago0x53400ae907b8295de937c5ad31d5efa5460010fb IN 0x17920846efd9be87822f3e23360d763ec7f538c1771.927951091250695 CRO0.1020489087490
0x9566684e10ba4449e77f672f979a78324968b4d45087b20b43be4159fc51e996Transfer59465702022-12-10 2:57:476 hrs 11 mins ago0xc72867b021650a1dab1989193375f874b62b1654 IN 0x17920846efd9be87822f3e23360d763ec7f538c1299.897951000300367 CRO0.1020489996990
0x3eee9a2d67912ecec1aa145573b86c8f4652024f662b5e13e5e4f2bf5647f738Transfer59458382022-12-10 1:48:417 hrs 20 mins ago0xc52e4a4c948c6c7690753fd4aec5048ec851766d IN 0x17920846efd9be87822f3e23360d763ec7f538c180.267905603916679 CRO0.102049709740
0x9e387aae42c69ed5c233e955deddb019ea2475c5686d8122753cd5f46494abbeTransfer59456152022-12-10 1:27:407 hrs 41 mins ago0xd1669a36267e598707206ff9b8800c7e30af998e IN 0x17920846efd9be87822f3e23360d763ec7f538c1134.897950071121998 CRO0.1020499288780
0xad108e5cbb0458b23f280d3625d714df758398dfc6af3123d68d1e6b8e40a561Transfer59455202022-12-10 1:18:427 hrs 50 mins ago0xf73e224f38d2003aacdf1f73f8251f77a5f30964 IN 0x17920846efd9be87822f3e23360d763ec7f538c1924.795920932506265 CRO0.1020500218080
0x341e06419c2df070cd9076c90eaf1b553926581488edce09ee4db82f1aa9a225Transfer59454562022-12-10 1:12:407 hrs 56 mins ago0x75eaa8df357e62c092fae9860fdf783a2519656c IN 0x17920846efd9be87822f3e23360d763ec7f538c117,099.89794991716222 CRO0.1020500828370
0xbf6609b72052ba383d662d12eb1086c245954ebda57456ec4626750106cffbacTransfer59453002022-12-10 0:57:578 hrs 11 mins ago0x17920846efd9be87822f3e23360d763ec7f538c1OUT 0x0224010ba2d567ffa014222ed960d1fa43b8c8e10 CRO0.1958198194120
0x3d88c8cc7b85e36cdc565a7ff7feb9c554c7eb250a21180fb5352218ec9f1348Transfer59452052022-12-10 0:48:598 hrs 20 mins ago0x17920846efd9be87822f3e23360d763ec7f538c1OUT 0x0224010ba2d567ffa014222ed960d1fa43b8c8e10 CRO0.1958200139810
0x10502504c4e01d9a10090a1589667e8d9a03b045cfa0dc3294f7ced9a9a6c3ebTransfer59451942022-12-10 0:47:578 hrs 21 mins ago0x17920846efd9be87822f3e23360d763ec7f538c1OUT 0x0224010ba2d567ffa014222ed960d1fa43b8c8e10 CRO0.1958200139810
0xf410aa7cdea67bcaa42252bdd353a67cac10287e63511be06faefdd2b61f1122Transfer59446612022-12-09 23:57:419 hrs 11 mins ago0x1f8bcf8a20274d025c07eed2a342397db4faaede IN 0x17920846efd9be87822f3e23360d763ec7f538c12,149.897949150716631 CRO0.1020508492830
0xf6e106d3489f3c777fbb46f2cd8c8009cd6ce13b03e010b67f538d8d2db9fbafTransfer59439302022-12-09 22:48:4110 hrs 20 mins ago0xc208f624fc7b936487137b690bf52571845486f9 IN 0x17920846efd9be87822f3e23360d763ec7f538c1394.39648278376543 CRO0.1020515610030
0x8b1b4b61cbfbf2ee5bbe3ed81958dd82d8dc055a9184a9371a5300be5a68685bTransfer59438672022-12-09 22:42:4410 hrs 26 mins ago0xc207815fe3fb19fbf956724e6dc80420ee48efaa IN 0x17920846efd9be87822f3e23360d763ec7f538c169.897948377551168 CRO0.1020516224480
0x1f39fb5e727a95256f7547aae76b15049882456f2eff27c79b760dc341a86283Transfer59430092022-12-09 21:21:4511 hrs 47 mins ago0xd2bc65b9055b6f77e0290ad15fb735eeffd7c483 IN 0x17920846efd9be87822f3e23360d763ec7f538c1957.6372475503988 CRO0.1020524496010
0x241552cd32c7c6d44d6fa9d0064e264322d29c08e8ef59413d538ad240ca8d82Transfer59426932022-12-09 20:51:5912 hrs 17 mins ago0x17920846efd9be87822f3e23360d763ec7f538c1OUT Mad Meerkat Finance: MMF Token0 CRO0.1960336283350
0x43650d8a8b08193a1562a732758bae65b9cf22385fa872b886cb36b70b5e4694Transfer59426262022-12-09 20:45:4012 hrs 23 mins ago0xd10abde66677fbdbe84584968b3ea5863be2b0d6 IN 0x17920846efd9be87822f3e23360d763ec7f538c1699.697947176160404 CRO0.1020528238390
0x16fe01b38273cbb823f3aebd1bc602906fe0552c8a0f06411ab8ba924cf104b2Transfer59419592022-12-09 19:42:4413 hrs 26 mins ago0x60cbd8f5c4441d94b7e507f08e9638297c2676f1 IN 0x17920846efd9be87822f3e23360d763ec7f538c14,741.565546535784661 CRO0.1020534642150
0xc89e9db5eea033c148c8b99a054d3c5744e2e1de02be90177a6c5ef506a7ff88Transfer59416092022-12-09 19:09:4213 hrs 59 mins ago0x9dda787d5cdd1dc6d40f49a5d0a5c4fed9e2a99c IN 0x17920846efd9be87822f3e23360d763ec7f538c11,285.897946196275918 CRO0.1020538037240
0x81ed2da2b7213610e14ade1e8ef196c364d14616841cf8d6dd345a8119f9587aTransfer59401442022-12-09 16:51:4216 hrs 17 mins ago0xa7d041bfd11c780b122632ed249f60e87374fade IN 0x17920846efd9be87822f3e23360d763ec7f538c149.89794477739227 CRO0.1020552226070
0x488b13cdcb35e694f41837626d475488dc518e4f7c5f6106e92881fa0c5ed110Transfer59399532022-12-09 16:33:4116 hrs 35 mins ago0xa7d041bfd11c780b122632ed249f60e87374fade IN 0x17920846efd9be87822f3e23360d763ec7f538c149.897944591827009 CRO0.1020554081720
0xfa7e3b7278a9b5404e9614107c34fd7f35eb802926a7f452312bb78b9987c7a5Transfer59396672022-12-09 16:06:4317 hrs 2 mins ago0x01e86fd00a837b1b569bdbbcc0996764ecaa9cba IN 0x17920846efd9be87822f3e23360d763ec7f538c1113.585406128615029 CRO0.1020556863210
[ Download CSV Export 
Parent Txn Hash Block From To Value
Loading

Contract Name:
0

Compiler Version
0

Optimization Enabled:
0

Other Settings:
-NA-
Block Transaction Gas Used Reward
Age Block Fee Address BC Fee Address Voting Power Jailed Incoming
Block Uncle Number Difficulty Gas Used Reward
Loading
Make sure to use the "Vote Down" button for any spammy posts, and the "Vote Up" for interesting conversations.